|   |  | Asteroid 2012 PP24
					
					
					
					
						
					
					
						
							(Preview) 
						
							
								Orbital elements:
2012 PP24                                                Earth MOID = 0.1511 AU
Epoch 2012 Sept. 30.0 TT = JDT 2456200.5                MPC
M  10.89802              (2000.0)            P               Q
n   0.31388160     Peri.  169.56343     +0.89663159     +0.44214601
a   2.1443326      Node   164.13137     -0.41221497     +0.85304099
e   0.4588286      Incl.    4.95906     -0.16164963     +0.27717858
P   3.14           H   22.1...                                 | Blobrana | 0 |  |  | 
		
			
			
				
				
					|   |  | Asteroid 2012 PA20
					
					
					
					
						
					
					
						
							(Preview) 
						
							
								Orbital elements:
2012 PA20                                                Earth MOID = 0.0156 AU
Epoch 2012 Sept. 30.0 TT = JDT 2456200.5                MPC
M 346.01920              (2000.0)            P               Q
n   0.33513540     Peri.  118.90205     +0.51406673     -0.85171011
a   2.0526859      Node   299.81306     +0.74054574     +0.50047490
e   0.5920286      Incl.    6.72552     +0.43281335     +0.15528930
P   2.94           H   22....                                 | Blobrana | 0 |  |  | 
		
			
			
				
				
					|   |  | Asteroid 2012 PZ19
					
					
					
					
						
					
					
						
							(Preview) 
						
							
								Orbital elements:
2012 PZ19                                                Earth MOID = 0.0694 AU
Epoch 2012 Sept. 30.0 TT = JDT 2456200.5                MPC
M   0.40629              (2000.0)            P               Q
n   0.27049784     Peri.   71.95814     +0.98226615     -0.18390978
a   2.3678827      Node   298.62575     +0.15244109     +0.89663611
e   0.5533614      Incl.    2.38154     +0.10915547     +0.40276652
P   3.64           H   24.5           G   0...                   | Blobrana | 0 |  |  | 
		
			
			
				
				
					|   |  | Asteroid 2012 PY19
					
					
					
					
						
					
					
						
							(Preview) 
						
							
								Orbital elements:
2012 PY19                                                Earth MOID = 0.0099 AU
Epoch 2012 Sept. 30.0 TT = JDT 2456200.5                MPC
M 253.47563              (2000.0)            P               Q
n   1.20791101     Peri.  171.85287     -0.64514057     -0.76389911
a   0.8731980      Node   318.32133     +0.69966283     -0.58229047
e   0.2004844      Incl.    1.36742     +0.30702698     -0.27820130
P   0.82           H   27....                                 | Blobrana | 0 |  |  | 
		
			
			
				
				
					|   |  | Asteroid 2012 PC20
					
					
					
					
						
					
					
						
							(Preview) 
						
							
								Orbital elements:
2012 PC20                                                Earth MOID = 0.1612 AU
Epoch 2012 Sept. 30.0 TT = JDT 2456200.5                MPC
M  76.34058              (2000.0)            P               Q
n   0.64420043     Peri.  290.12026     -0.15327237     +0.98039058
a   1.3277675      Node   330.20808     -0.78772513     -0.19689760
e   0.1839038      Incl.   14.43577     -0.59665459     +0.00810252
P   1.53           H   21....                                 | Blobrana | 0 |  |  | 
		
			
			
				
				
					|   |  | Asteroid 2012 PB20
					
					
					
					
						
					
					
						
							(Preview) 
						
							
								Orbital elements:
2012 PB20                                                Earth MOID = 0.0010 AU
Epoch 2012 Sept. 30.0 TT = JDT 2456200.5                MPC
M 164.42522              (2000.0)            P               Q
n   0.91065198     Peri.   49.97252     -0.97230218     +0.22549764
a   1.0541468      Node   142.94074     -0.23318196     -0.91791965
e   0.0951672      Incl.    5.85498     -0.01595783     -0.32645723
P   1.08           H   24.9...                                 | Blobrana | 0 |  |  | 
		
			
			
				
				
					|   |  | Asteroid 2012 PD20
					
					
					
					
						
					
					
						
							(Preview) 
						
							
								Orbital elements:
2012 PD20                                                Earth MOID = 0.0243 AU
Epoch 2012 Sept. 30.0 TT = JDT 2456200.5                MPC
M  15.81644              (2000.0)            P               Q
n   0.39162631     Peri.  191.35892     +0.84796771     +0.52825710
a   1.8502119      Node   136.66182     -0.48120477     +0.80166515
e   0.4408984      Incl.    3.63686     -0.22224476     +0.27978103
P   2.52           H   25.4...                                 | Blobrana | 0 |  |  | 
		
			
			
				
				
					|   |  | Asteroid 2012 PZ17
					
					
					
					
						
					
					
						
							(Preview) 
						
							
								Orbital elements:
2012 PZ17                                                Earth MOID = 0.0067 AU
Epoch 2012 Sept. 30.0 TT = JDT 2456200.5                MPC
M 227.23472              (2000.0)            P               Q
n   1.16597831     Peri.    7.30011     -0.84099792     -0.53761366
a   0.8940100      Node   139.98429     +0.49149301     -0.80611020
e   0.1425437      Incl.    5.42392     +0.22617939     -0.24730125
P   0.85           H   26.8           G...                      | Blobrana | 0 |  |  | 
		
			
			
				
				
					|   |  | Asteroid 2012 PS17
					
					
					
					
						
					
					
						
							(Preview) 
						
							
								Orbital elements:
2012 PS17                                                Earth MOID = 0.2372 AU
Epoch 2012 Sept. 30.0 TT = JDT 2456200.5                MPC
M   3.03758              (2000.0)            P               Q
n   0.25411666     Peri.   38.70122     +0.98716919     +0.06153707
a   2.4685805      Node   317.04820     -0.13171951     +0.83543020
e   0.5093494      Incl.   12.48842     +0.09026056     +0.54614061
P   3.88           H   19.8           G... | Blobrana | 0 |  |  | 
		
			
			
				
				
					|   |  | Asteroid 2012 PP17
					
					
					
					
						
					
					
						
							(Preview) 
						
							
								Orbital elements:
2012 PP17                                                Earth MOID = 0.1884 AU
Epoch 2012 Sept. 30.0 TT = JDT 2456200.5                MPC
M  15.22970              (2000.0)            P               Q
n   0.25065697     Peri.   66.01838     +0.63610270     +0.76626028
a   2.4912436      Node   243.79566     -0.73957010     +0.57196904
e   0.5282958      Incl.    5.79910     -0.22002142     +0.29273981
P   3.93           H   21.1           G... | Blobrana | 0 |  |  | 
		
			
			
				
				
					|   |  | Asteroid 2012 PO17
					
					
					
					
						
					
					
						
							(Preview) 
						
							
								Orbital elements:
2012 PO17                                                Earth MOID = 0.1843 AU
Epoch 2012 Sept. 30.0 TT = JDT 2456200.5                MPC
M  23.37925              (2000.0)            P               Q
n   0.31681795     Peri.   11.97944     +0.47131227     +0.87092151
a   2.1310626      Node   286.27686     -0.82068505     +0.37529163
e   0.4379243      Incl.    8.33449     -0.32301826     +0.31725687
P   3.11           H   22.8           G... | Blobrana | 0 |  |  | 
		
			
			
				
				
					|   |  | Asteroid 2012 PN6
					
					
					
					
						
					
					
						
							(Preview) 
						
							
								Orbital elements:
2012 PN6                                                 Earth MOID = 0.1489 AU
Epoch 2012 Sept. 30.0 TT = JDT 2456200.5                MPC
M  25.26317              (2000.0)            P               Q
n   0.43199363     Peri.  162.43475     +0.66632845     +0.69485821
a   1.7330769      Node   147.66793     -0.73035893     +0.68130568
e   0.3370988      Incl.   30.38453     -0.15027388     -0.23020565
P   2.28           H   22.1...                                 | Blobrana | 0 |  |  | 
		
			
			
				
				
					|   |  | Asteroid 2012 PJ6
					
					
					
					
						
					
					
						
							(Preview) 
						
							
								Orbital elements:
2012 PJ6                                                 Earth MOID = 0.2262 AU
Epoch 2012 Sept. 30.0 TT = JDT 2456200.5                MPC
M  21.22884              (2000.0)            P               Q
n   0.31622872     Peri.  144.21367     +0.67358241     +0.73872045
a   2.1337089      Node   168.06686     -0.70230751     +0.64984548
e   0.4243456      Incl.    6.68179     -0.23032780     +0.17886571
P   3.12           H   21.4           G... | Blobrana | 0 |  |  | 
		
			
			
				
				
					|   |  | Asteroid 2012 PG6
					
					
					
					
						
					
					
						
							(Preview) 
						
							
								Orbital elements:
2012 PG6                                                 Earth MOID = 0.0533 AU
Epoch 2012 Sept. 30.0 TT = JDT 2456200.5                MPC
M 301.41450              (2000.0)            P               Q
n   1.28613952     Peri.  169.71974     -0.52749797     -0.84532983
a   0.8374213      Node   312.05858     +0.77113680     -0.43461867
e   0.6161404      Incl.    6.54566     +0.35650235     -0.31068327
P   0.77           H   20.1... | Blobrana | 0 |  |  | 
		
			
			
				
				
					|   |  | Asteroid 2012 PH6
					
					
					
					
						
					
					
						
							(Preview) 
						
							
								Orbital elements:
2012 PH6                                                 Earth MOID = 0.1601 AU
Epoch 2012 Sept. 30.0 TT = JDT 2456200.5                MPC
M   6.34324              (2000.0)            P               Q
n   0.42417987     Peri.  209.24207     +0.94532041     +0.19041108
a   1.7542952      Node   137.04056     -0.16783611     +0.98013911
e   0.3490607      Incl.   22.86424     -0.27964329     +0.05541614
P   2.32           H   21.4           G...                      | Blobrana | 0 |  |  |